Starlink 2408

operational
NORAD ID: 47823 Int'l Des: 2021-018 Owner: SPXS Country: US Constellation: starlink
LEOCIRCULARSTARLINK_TYPE

About Starlink 2408

Description loading...

Live Position

Loading 3D Globe...

Upcoming Passes

Altitude History

Altitude vs Time

uPlot chart will show altitude changes over time

Two-Line Element Set

1 47823U 21018AN 25353.12153491 -.00001750 00000-0 -98617-4 0 9990
2 47823 53.0542 253.2959 0001374 80.7753 279.3391 15.06401155264458
Epoch: Dec 19, 2025 • Age: 13 hours

Current Status

Altitude 549.6 km
Velocity 7.59 km/s
Sub-Earth Point 37.03°N, 64.41°E
Launch Date Mar 11, 2021
Age 4.7 years
Type internet

Technical Details

Classification Payload
Mass 260.00 kg
Dry Mass 248.00 kg
Total Mass 260.00 kg
Length 0.20 m
Diameter 2.80 m
Span 9.00 m
Shape Box + pan
Manufacturer SPXS
Bus Type Starlink
Phase Status In Orbit
Owner/State SPXS/US

Large Constellations

Loading constellations...